www.pogodaiklimat.ru

Погода и климат >> Архив погоды >> Австрия >> Зальцбург университет


ПОГОДА в Зальцбурге университет

  • Прогноз погоды в Зальцбурге университет
  • Монитор погоды в Зальцбурге университет

АРХИВ ПОГОДЫ в Зальцбурге университет

Время (UTC), дата Ветер
(напр.,м/с)
 
Видим.   Явления Облачность Т
(С)
Тd
(С)
f
(%)
Тe
(С)
Тes
(С)
Комфортность P
(гПа)
Po
(гПа)
Тmin
(С)
Tmax
(С)
R
(мм)
R24
(мм)
S
(см)
07 13.08 н/о 970.8
08 13.08 н/о 971.0
09 13.08 н/о 971.1
10 13.08 н/о 971.0
11 13.08 н/о 970.7
12 13.08 н/о 970.4
13 13.08 н/о 969.9
14 13.08 н/о 969.6
15 13.08 н/о 969.0
19 13.08 ЮВ 1 н/о осадки н/о +13.8 +12.6 92 +14 +14 1020.1 971.1 4
20 13.08 ЮВ 1 н/о осадки н/о +13.4 +12.1 92 +14 +14 1020.6 971.5 0.9
21 13.08 штиль 0 н/о осадки н/о +13.1 +12.3 95 +13 +13 1020.2 971.0 6
22 13.08 Ю 1 н/о осадки н/о +12.8 +12.2 96 +13 +13 1020.3 971.1 0.3
23 13.08 штиль 0 н/о осадки н/о +12.9 +12.3 96 +12 +12 1020.2 971.0 0.2
00 14.08 ЮВ 1 н/о осадки {ливн. осадки} н/о +12.7 +12.0 96 +13 +13 1019.9 970.7 7
01 14.08 ЮВ 1 н/о осадки н/о +12.7 +11.9 95 +13 +13 1019.9 970.7 0.2
02 14.08 Ю 1 н/о осадки н/о +12.6 +11.8 95 +13 +13 1019.9 970.7 0.3
03 14.08 Ю 1 н/о осадки н/о +12.7 +12.0 96 +13 +13 1019.9 970.7 0.9
04 14.08 ЮВ 1 н/о осадки н/о +12.7 +12.2 97 +13 +13 1020.1 970.9 0.9
05 14.08 Ю 1 н/о в посл. час осадки н/о +12.7 +12.1 96 +13 +13 1020.3 971.1 0.1
06 14.08 Ю 1 н/о {осадки} н/о +13.0 +12.3 96 +13 +13 1020.6 971.4 +12.5 +15.5 9
07 14.08 ЮВ 1 н/о н/о +13.6 +12.5 93 +14 +14 1020.6 971.5
08 14.08 Ю 1 н/о н/о +14.7 +12.5 87 +15 +15 1020.4 971.5
09 14.08 ЮВ 1 н/о н/о +15.8 +11.5 76 +17 +17 1020.3 971.6
10 14.08 ЮВ 2 н/о н/о +15.6 +12.8 83 +15 +15 1020.2 971.5 0.0
11 14.08 СВ 1 н/о осадки н/о +16.4 +12.5 78 +17 +17 1020.0 971.4 0.1
12 14.08 штиль 0 н/о в посл. час осадки н/о +18.1 +10.9 63 +18 +18 1019.3 971.0 0.2
13 14.08 ЮВ 1 н/о н/о +19.3 +10.4 56 +21 +21 комфорт 1018.8 970.7
14 14.08 С 1 н/о н/о +19.7 +9.9 53 +22 +22 комфорт 1018.2 970.2
15 14.08 З 1 н/о н/о +20.4 +8.3 46 +23 +23 комфорт 1017.8 969.9
16 14.08 Ю 2 н/о н/о +20.3 +8.6 47 +22 +22 комфорт 1017.2 969.3
17 14.08 штиль 0 н/о н/о +20.4 +10.3 52 +22 +22 комфорт 1017.1 969.2
18 14.08 ЮЗ 1 н/о н/о +17.3 +9.7 61 +18 +18 1017.7 969.3 +13.0 +21.0 0.2
19 14.08 штиль 0 н/о н/о +14.8 +11.6 81 +15 +15 1018.5 969.7
20 14.08 Ю 1 н/о н/о +13.4 +10.3 81 +14 +14 1019.1 970.0
21 14.08 штиль 0 н/о н/о +12.5 +10.6 88 +12 +12 1019.2 970.0
22 14.08 штиль 0 н/о н/о +11.8 +10.3 91 +11 +11 1019.4 970.0
23 14.08 штиль 0 н/о н/о +11.1 +9.7 91 +10 +10 1019.5 970.0
00 15.08 штиль 0 н/о н/о +10.7 +9.7 94 +10 +10 1019.4 969.8
01 15.08 штиль 0 н/о н/о +10.3 +9.5 95 +9 +9 1019.1 969.5
02 15.08 штиль 0 н/о н/о +9.7 +9.0 95 +9 +9 1018.6 968.9
03 15.08 штиль 0 н/о н/о +9.6 +8.9 95 +9 +9 1018.2 968.5
04 15.08 ЮЗ 1 н/о н/о +9.8 +9.0 95 +9 +9 1018.1 968.4
05 15.08 СЗ 1 н/о н/о +9.7 +8.9 95 +9 +9 1017.9 968.2
06 15.08 ЮВ 1 н/о н/о +13.4 +9.4 77 +14 +14 1016.9 967.9 +9.2 +17.7
07 15.08 Ю 3 н/о н/о +15.9 +9.8 67 +15 +15 1016.0 967.5
08 15.08 Ю 4 н/о н/о +17.9 +10.6 62 +18 +18 1015.3 967.1
09 15.08 Ю 3 н/о н/о +19.4 +9.8 54 +21 +21 комфорт 1014.8 966.9 0.0
10 15.08 ЮВ 1 н/о н/о +21.6 +10.7 50 +23 +23 комфорт 1014.2 966.7
11 15.08 СЗ 1 н/о н/о +22.6 +9.1 42 +24 +24 комфорт 1013.9 966.5
12 15.08 СЗ 1 н/о н/о +23.3 +10.0 43 +25 +25 комфорт 1013.6 966.4 0.0
13 15.08 З 3 н/о н/о +21.8 +10.2 48 +24 +24 комфорт 1014.3 966.8 0.0
14 15.08 С 2 н/о в посл. час осадки н/о +19.8 +12.8 64 +22 +22 комфорт 1015.1 967.3 0.0
15 15.08 С 1 н/о {осадки} н/о +19.9 +12.8 64 +23 +23 комфорт 1014.9 967.1 0.0
16 15.08 ЮЗ 1 н/о н/о +19.8 +13.0 65 +23 +23 комфорт 1014.7 966.9 0.0
17 15.08 Ю 1 н/о н/о +19.6 +13.5 68 +22 +22 комфорт 1014.6 966.8
18 15.08 штиль 0 н/о {осадки} н/о +18.6 +14.2 76 +19 +19 1015.3 967.3 +12.7 +23.5 0.0
19 15.08 СЗ 1 н/о н/о +18.5 +13.4 72 +20 +20 1015.9 967.8
20 15.08 штиль 0 н/о н/о +17.2 +12.7 75 +17 +17 1016.5 968.2
21 15.08 штиль 0 н/о н/о +16.6 +12.6 77 +17 +17 1017.2 968.8
22 15.08 штиль 0 н/о н/о +16.4 +13.1 81 +16 +16 1017.7 969.2
23 15.08 штиль 0 н/о в посл. час осадки н/о +16.3 +13.6 84 +16 +16 1018.2 969.7 0.1
00 16.08 Ю 2 н/о ливневой дождь {осадки} н/о +15.4 +13.7 90 +15 +15 1018.5 969.8 0.5
01 16.08 Ю 1 н/о ливневой дождь н/о +14.8 +13.6 93 +15 +15 1019.2 970.4 0.6
02 16.08 штиль 0 н/о в посл. час осадки н/о +14.6 +13.7 94 +14 +14 1018.9 970.1 1
03 16.08 СВ 1 н/о в посл. час осадки {ливн. осадки} н/о +14.6 +13.7 94 +15 +15 1019.3 970.5 2
04 16.08 штиль 0 н/о в посл. час осадки н/о +14.3 +13.2 93 +14 +14 1019.7 970.8 0.1
05 16.08 Ю 1 н/о н/о +14.4 +13.0 91 +15 +15 1020.0 971.1 0.0
06 16.08 штиль 0 н/о {ливн. осадки} н/о +14.6 +13.5 93 +14 +14 1020.3 971.4 +14.1 +18.8 3
07 16.08 штиль 0 н/о н/о +15.0 +13.5 91 +15 +15 1020.4 971.6
08 16.08 Ю 2 н/о н/о +15.9 +13.7 87 +16 +16 1020.5 971.8
09 16.08 штиль 0 н/о н/о +18.9 +12.4 66 +20 +20 1019.7 971.5
10 16.08 Ю 2 н/о н/о +19.7 +11.8 60 +22 +22 комфорт 1019.0 971.0
11 16.08 Ю 2 н/о н/о +20.4 +11.3 56 +23 +23 комфорт 1018.4 970.5
12 16.08 З 1 н/о н/о +20.6 +10.1 51 +23 +23 комфорт 1018.2 970.3
13 16.08 штиль 0 н/о н/о +21.4 +11.2 52 +23 +23 комфорт 1017.6 969.9
14 16.08 З 1 н/о н/о +22.6 +10.0 45 +24 +24 комфорт 1016.8 969.3
15 16.08 СЗ 1 н/о н/о +21.9 +10.6 49 +24 +24 комфорт 1016.7 969.1 0.0
16 16.08 Ю 1 н/о н/о +21.5 +9.7 47 +23 +23 комфорт 1016.5 968.8
17 16.08 Ю 1 н/о н/о +21.4 +13.1 59 +24 +24 комфорт 1016.1 968.5 0.0
18 16.08 Ю 1 н/о н/о +18.9 +13.7 72 +21 +21 комфорт 1016.6 968.6 +14.5 +23.0 0.0
19 16.08 Ю 1 н/о н/о +17.2 +12.1 72 +18 +18 1017.0 968.7
20 16.08 штиль 0 н/о н/о +15.3 +12.2 82 +15 +15 1017.6 968.9
21 16.08 штиль 0 н/о н/о +14.4 +12.0 85 +14 +14 1017.6 968.8
22 16.08 ЮЗ 1 н/о н/о +13.4 +11.5 88 +14 +14 1017.5 968.5
23 16.08 штиль 0 н/о н/о +12.6 +11.2 91 +12 +12 1017.2 968.1
00 17.08 штиль 0 н/о н/о +11.9 +10.7 92 +11 +11 1017.1 967.9
01 17.08 штиль 0 н/о н/о +11.6 +10.5 93 +11 +11 1016.8 967.5
02 17.08 штиль 0 н/о н/о +11.4 +10.3 93 +11 +11 1016.8 967.5
03 17.08 Ю 1 н/о н/о +12.1 +9.8 86 +12 +12 1016.7 967.5
04 17.08 штиль 0 н/о н/о +11.9 +9.9 88 +11 +11 1016.8 967.6
05 17.08 штиль 0 н/о н/о +12.9 +10.2 84 +12 +12 1016.6 967.5
06 17.08 Ю 2 н/о н/о +14.7 +10.1 74 +14 +14 1016.2 967.5 +11.1 +19.4
07 17.08 Ю 3 н/о н/о +16.9 +10.9 68 +17 +17 1015.9 967.5
08 17.08 Ю 3 н/о н/о +19.2 +11.3 60 +20 +20 1015.5 967.5
09 17.08 ЮВ 3 н/о н/о +20.8 +11.9 57 +23 +23 комфорт 1015.2 967.5
10 17.08 Ю 2 н/о н/о +22.6 +11.7 50 +25 +25 комфорт 1014.5 967.1
11 17.08 Ю 1 н/о н/о +24.2 +12.2 47 +26 +26 жарко 1013.8 966.7
12 17.08 Ю 1 н/о н/о +26.0 +14.3 48 +28 +28 жарко 1013.4 966.6
13 17.08 ЮЗ 1 н/о н/о +25.9 +11.6 41 +27 +27 жарко 1013.1 966.3
14 17.08 С 1 н/о н/о +26.1 +11.0 39 +27 +27 жарко 1012.7 965.9
15 17.08 С 1 н/о н/о +25.3 +12.0 43 +27 +27 жарко 1012.5 965.6
16 17.08 штиль 0 н/о н/о +24.1 +14.9 56 +27 +27 жарко 1012.5 965.5
17 17.08 штиль 0 н/о н/о +23.5 +16.7 66 +27 +27 душно 1012.3 965.3
18 17.08 ЮВ 1 н/о н/о +22.2 +15.7 67 +26 +26 душно 1012.8 965.5 +14.1 +26.4
19 17.08 штиль 0 н/о н/о +21.0 +15.7 72 +24 +24 комфорт 1013.4 965.9
20 17.08 ЮВ 1 н/о н/о +19.4 +15.9 80 +22 +22 комфорт 1014.0 966.2
21 17.08 штиль 0 н/о н/о +18.7 +14.4 76 +19 +19 1013.5 965.6 0.0
22 17.08 штиль 0 н/о н/о +19.1 +14.6 75 +20 +20 1013.6 965.8
23 17.08 штиль 0 н/о н/о +18.5 +14.6 78 +19 +19 1013.8 965.9
00 18.08 штиль 0 н/о н/о +18.2 +14.7 80 +18 +18 1013.7 965.7 0.0
01 18.08 ЮВ 1 н/о н/о +18.0 +14.7 81 +19 +19 1013.5 965.5
02 18.08 штиль 0 н/о н/о +18.7 +13.4 71 +19 +19 1012.7 964.8
03 18.08 ЮЗ 1 н/о н/о +19.6 +12.5 64 +22 +22 комфорт 1011.9 964.2
04 18.08 ЮЗ 1 н/о н/о +19.6 +11.7 60 +22 +22 комфорт 1011.9 964.2
05 18.08 Ю 2 н/о н/о +19.2 +11.4 61 +21 +21 комфорт 1011.9 964.1
06 18.08 Ю 3 н/о н/о +20.5 +11.5 56 +23 +23 комфорт 1012.0 964.4 +17.9 +22.7 0.0
07 18.08 Ю 3 н/о н/о +22.3 +12.4 53 +25 +25 комфорт 1011.8 964.5
08 18.08 Ю 2 н/о н/о +23.6 +12.7 50 +26 +26 жарко 1011.8 964.7
09 18.08 Ю 3 н/о н/о +25.9 +13.2 45 +28 +28 жарко 1011.2 964.5
10 18.08 Ю 1 н/о н/о +27.8 +15.3 46 +30 +30 жарко 1010.4 964.1
11 18.08 С 1 н/о н/о +29.1 +14.2 40 +31 +31 жарко 1009.7 963.6
12 18.08 С 1 н/о н/о +30.2 +13.3 36 +32 +32 жарко 1009.3 963.3
13 18.08 С 1 н/о н/о +31.2 +14.1 35 +33 +33 жарко 1008.7 962.9
14 18.08 СВ 1 н/о н/о +32.2 +11.0 27 +32 +32 жарко 1008.0 962.4
15 18.08 С 1 н/о н/о +32.1 +10.7 27 +32 +32 жарко 1008.0 962.3
16 18.08 С 1 н/о н/о +31.6 +11.4 29 +32 +32 жарко 1008.0 962.3
17 18.08 СЗ 1 н/о н/о +31.2 +10.5 28 +31 +31 жарко 1008.1 962.3
18 18.08 штиль 0 н/о н/о +26.2 +15.6 52 +29 +29 жарко 1008.6 962.1 +20.4 +32.5
19 18.08 Ю 1 н/о н/о +22.5 +16.7 70 +27 +27 душно 1009.1 962.1
20 18.08 ЮЗ 1 н/о н/о +21.7 +15.4 67 +25 +25 комфорт 1009.6 962.4
21 18.08 штиль 0 н/о н/о +20.2 +14.9 72 +22 +22 комфорт 1009.7 962.2
22 18.08 З 1 н/о н/о +19.7 +14.8 73 +23 +23 комфорт 1009.9 962.3
23 18.08 штиль 0 н/о н/о +19.6 +14.0 70 +21 +21 комфорт 1010.1 962.5
00 19.08 С 1 н/о н/о +19.6 +14.3 71 +22 +22 комфорт 1012.0 964.3
01 19.08 СЗ 1 н/о н/о +20.6 +14.6 68 +24 +24 комфорт 1013.5 965.9
02 19.08 СЗ 1 н/о н/о +22.7 +14.4 59 +26 +26 жарко 1014.9 967.6
03 19.08 З 2 н/о осадки н/о +21.2 +14.5 66 +24 +24 комфорт 1017.5 969.8 0.1
04 19.08 С 1 н/о в посл. час осадки н/о +18.3 +15.5 84 +20 +20 1018.2 970.0 0.2
05 19.08 штиль 0 н/о в посл. час осадки н/о +17.7 +15.5 87 +18 +18 1017.9 969.7 0.2
06 19.08 Ю 1 н/о {ливн. осадки} н/о +18.0 +15.6 86 +19 +19 1017.9 969.7 +17.6 +26.6 0.5
07 19.08 ЮВ 1 н/о н/о +19.7 +16.5 82 +23 +23 комфорт 1017.5 969.6
08 19.08 Ю 2 н/о н/о +20.6 +15.4 72 +24 +24 комфорт 1016.8 969.1
09 19.08 ЮВ 1 н/о н/о +22.2 +15.6 66 +26 +26 душно 1017.3 969.8
10 19.08 ЮЗ 1 н/о н/о +22.4 +15.7 66 +26 +26 жарко 1017.6 970.1
11 19.08 Ю 1 н/о н/о +21.9 +16.1 70 +26 +26 душно 1017.1 969.6
12 19.08 штиль 0 н/о н/о +21.9 +16.6 72 +26 +26 душно 1017.1 969.6 0.0
13 19.08 Ю 1 н/о осадки н/о +21.6 +15.8 70 +25 +25 комфорт 1017.8 970.2 0.0
14 19.08 ЮВ 2 н/о в посл. час осадки н/о +21.7 +16.7 73 +26 +26 душно 1017.4 969.8 0.1
15 19.08 ЮВ 2 н/о {осадки} н/о +21.0 +17.0 78 +26 +26 душно 1017.4 969.7 0.1
16 19.08 Ю 3 н/о н/о +22.4 +16.0 67 +27 +27 душно 1016.7 969.3
17 19.08 Ю 2 н/о н/о +22.7 +15.7 65 +27 +27 душно 1016.7 969.3
18 19.08 штиль 0 н/о {осадки} н/о +21.0 +16.0 73 +24 +24 комфорт 1017.2 969.5 +18.0 +23.8 0.1
19 19.08 штиль 0 н/о н/о +18.8 +16.3 85 +20 +20 1018.4 970.3
20 19.08 штиль 0 н/о н/о +17.6 +15.5 87 +18 +18 1019.0 970.7
21 19.08 штиль 0 н/о н/о +16.9 +15.3 90 +17 +17 1019.3 970.9
22 19.08 штиль 0 н/о н/о +17.1 +15.3 89 +17 +17 1019.7 971.3
23 19.08 штиль 0 н/о н/о +17.2 +15.1 87 +17 +17 1019.6 971.2
00 20.08 З 1 н/о н/о +17.3 +14.9 86 +18 +18 1019.5 971.1
01 20.08 штиль 0 н/о н/о +16.6 +14.7 89 +16 +16 1019.4 970.9
02 20.08 ЮЗ 1 н/о н/о +16.4 +14.7 90 +17 +17 1019.9 971.3
03 20.08 штиль 0 н/о н/о +16.7 +14.5 87 +17 +17 1020.9 972.3
04 20.08 Ю 1 н/о н/о +16.2 +14.9 92 +17 +17 1020.7 972.1
05 20.08 Ю 2 н/о н/о +16.8 +14.7 87 +17 +17 1020.0 971.5

 

Местоположение метеостанции Зальцбург университет (Австрия): широта 47.78 долгота 13.05 высота над уровнем моря 423 м.

В архиве по умолчанию представлена погода в Зальцбурге университет за последнюю неделю. Архивные данные за месяц целиком и за предыдущие месяцы, начиная с января 2011 года, Вы можете получить, выбрав интересующий диапазон дат из раскрывающегося списка и нажав кнопку "Ввод!".


*Определитесь, кто Вы:
робот инопланетянин человек

Внимание! Время в таблицах - всемирное. Для получения местного времени необходимо прибавить поправку, которая равна 1 ч.

Смотрите также архив погоды в соседних городах и на ближайших метеорологических станциях:

Погода в Зальцбурге (Австрия) (4 км)
Погода в Маттзе (Австрия) (23 км)
Погода в Мондзе (Австрия) (25 км)
Погода в Санкт-Вольфганге (Австрия) (30 км)
Погода в Лофере (Австрия) (34 км)
Погода в Лоферер Альме (Австрия) (36 км)
Погода в Франкенмаркте (Австрия) (36 км)
Погода в Киминге (Германия) (40 км)
Погода в Мария-Альм (Австрия) (43 км)
Погода в Бишофсхофене (Австрия) (44 км)

Пояснения к столбцам:

Ветер - указаны скорость ветра в м/с - средняя за 10 мин, порывы в срок и между сроками (в фигурных скобках) и направление, откуда дует ветер: С - северный, СВ - северо-восточный, В - восточный, ЮВ - юго-восточный, Ю - южный, ЮЗ - юго-западный, З - западный, СЗ - северо-западный.
Видимость - горизонтальная дальность видимости в метрах или километрах. При видимости от 1 до 10 км при отсутствии осадков обычно наблюдается дымка, при ухудшении видимости до 1 км и менее - туман. В сухую погоду видимость может ухудшаться дымом, пылью или мглою.
Явления - указаны атмосферные явления, наблюдавшиеся в срок или в последний час перед сроком; фигурными скобками обозначены явления, наблюдавшиеся между сроками (за 1-3 часа до срока); квадратными скобками обозначены град или гололедные отложения с указанием их диаметра в мм.
Облачность - указаны через наклонную черту общая и нижняя облачность в баллах и высота нижней границы облаков в метрах; квадратными скобками обозначены формы облаков: Ci - перистые, Cs - перисто-слоистые, Cc - перисто-кучевые, Ac - высококучевые, As - высокослоистые, Sc - слоисто-кучевые, Ns - слоисто-дождевые, Cu - кучевые, Cb - кучево-дождевые. Подробнее классификацию облаков см. в Атласе облаков (PDF).
T - Температура воздуха - температура, измеренная на высоте 2 м над землей.
Td - Температура точки росы - температура, при понижении до которой содержащийся в воздухе водяной пар достигнет насыщения.
f - Относительная влажность воздуха - влажноcть воздуха, измеренная на высоте 2 м над землей.
Te - Эффективная температура - температура, которую ощущает одетый по сезону человек в тени. Характеристика душности погоды. При расчете учитывается влияние влажности воздуха и скорости ветра на теплоощущения человека.
Tes - Эффективная температура на солнце - температура, которую ощущает человек, с поправкой на солнечный нагрев. Характеристика знойности погоды. Зависит от высоты солнца над горизонтом, облачности и скорости ветра. Ночью, в пасмурную погоду, а также при ветре 12 м/с и более поправка равна нулю.
P - Атмосферное давление - приведенное к уровню моря атмосферное давление.
Po - Атмосферное давление - измеренное на уровне метеостанции атмосферное давление.
Tmin - Минимальная температура - минимум температуры воздуха на высоте 2 м над землей.
Tmax - Максимальная температура - максимум температуры воздуха на высоте 2 м над землей.
R - Количество осадков - Количество выпавших осадков за период времени, мм. При наведении курсора мыши на число - период времени, за который выпало указанное количество осадков.
R24 - Количество осадков - Количество выпавших осадков за 24 часа, мм.
S - Снежный покров - Высота снежного покрова, см. При наведении курсора мыши на число - состояние снежного покрова и степень покрытия местности в баллах.